www.pogodaiklimat.ru

Погода и климат >> Архив погоды >> Китай >> Гирин >> Чанлин


ПОГОДА в Чанлине

  • Прогноз погоды в Чанлине
  • Монитор погоды в Чанлине

АРХИВ ПОГОДЫ в Чанлине

Время (UTC), дата Ветер
(напр.,м/с)
 
Видим.   Явления Облачность Т
(С)
Тd
(С)
f
(%)
Тe
(С)
Тes
(С)
Комфортность P
(гПа)
Po
(гПа)
Тmin
(С)
Tmax
(С)
R
(мм)
R24
(мм)
S
(см)
18 11.09 Ю 2 8000 м ?/? +15.1 +7.4 60 +15 +15 1018.9 996.2 +24.7
21 11.09 Ю 1 8000 м н/о +14.3 +7.6 64 +15 +15 1019.3 996.5
00 12.09 В 2 7000 м 8/8 1500 м
[]
+18.5 +7.9 50 +19 +20 1018.7 996.3
03 12.09 В 4 7000 м ясно +21.7 +7.9 41 +23 +28 комфорт 1016.9 994.8
06 12.09 Ю 3 7000 м 8/8 1500 м
[]
+24.0 +8.0 36 +24 +26 комфорт 1014.5 992.6 +14.1
09 12.09 Ю 3 7000 м ясно +22.1 +10.9 49 +24 +25 комфорт 1013.0 991.0
12 12.09 Ю 2 7000 м ясно +18.7 +12.7 68 +20 +20 1012.5 990.2
18 12.09 Ю 2 н/о дымка ?/? +17.7 +15.7 88 +18 +18 1010.0 1010.0 +24.1
21 12.09 Ю 4 н/о дымка н/о +17.7 +16.0 90 +17 +17 1008.3 986.0
00 13.09 Ю 3 6000 м дымка 10/10 1500 м
[]
+19.0 +16.0 83 +21 +21 комфорт 1008.6 986.4
03 13.09 ЮЗ 6 4500 м слаб. дождь 10/10 1500 м
[]
+19.0 +16.6 86 +20 +20 1007.5 985.4
06 13.09 З 4 3300 м в посл. час дождь {морось} 10/10 1500 м
[]
+17.5 +16.7 95 +17 +17 1006.6 984.4 +16.8 14
09 13.09 СЗ 4 7000 м в посл. час дождь {морось} 9/9 1500 м
[]
+16.0 +15.0 94 +15 +15 1009.2 986.8
12 13.09 штиль 0 5000 м дымка {дождь} 6/6 1000 м
[]
+13.1 +12.3 95 +13 +13 1011.3 988.6 0.3
18 13.09 З 1 2900 м дымка ?/? +12.2 +11.7 97 +12 +12 1013.3 990.5 +20.0
21 13.09 штиль 0 3600 м дымка н/о +12.2 +11.3 94 +12 +12 1015.0 992.2
00 14.09 Ю 1 7000 м ясно +16.7 +11.4 71 +18 +22 1015.8 993.3 0.1
03 14.09 ЮЗ 2 10 км ясно +21.5 +10.9 51 +23 +35 комфорт 1015.5 993.4
06 14.09 С 2 10 км ясно +22.8 +7.7 38 +24 +32 комфорт 1014.2 992.2 +10.6
09 14.09 З 1 8000 м ясно +23.3 +9.7 42 +25 +26 комфорт 1014.3 992.3
12 14.09 штиль 0 7000 м ясно +14.5 +11.8 84 +14 +14 1014.5 991.9
18 14.09 Ю 2 10 км ?/? +14.5 +9.3 71 +14 +14 1012.8 990.2 +24.4
21 14.09 Ю 2 11 км н/о +13.3 +8.4 72 +13 +13 1012.2 989.5
00 15.09 ЮЗ 3 9000 м ясно +17.2 +9.4 60 +17 +20 1011.4 989.0
03 15.09 Ю 5 9000 м ясно +22.5 +9.3 43 +24 +30 комфорт 1008.8 986.9
06 15.09 Ю 6 9000 м ясно +25.1 +10.5 40 +26 +29 жарко 1006.3 984.6 +12.4
09 15.09 Ю 2 4500 м дождь 10/10 1500 м
[]
+22.1 +9.9 46 +24 +24 комфорт 1007.5 985.6
12 15.09 З 3 6000 м дымка {дождь} 10/10 1500 м
[]
+16.4 +11.1 71 +16 +16 1011.4 989.0 3
18 15.09 С 3 12 км ?/? +10.3 +0.6 51 +9 +9 1017.4 994.4 +25.4
21 15.09 СЗ 1 14 км н/о +4.8 +1.8 81 +4 +4 1019.5 996.0
00 16.09 С 2 11 км ясно +10.0 +1.4 55 +9 +13 1020.7 997.6
03 16.09 З 3 10 км ясно +15.0 -3.3 28 +15 +24 1020.3 997.6
06 16.09 З 2 10 км ясно +17.8 -4.1 22 +18 +26 1018.5 996.0 +3.8
09 16.09 З 1 10 км ясно +18.2 -1.5 26 +19 +19 1018.1 995.7
12 16.09 Ю 1 9000 м {дождь} ясно +13.4 +1.4 44 +14 +14 1018.0 995.2
18 16.09 Ю 2 6000 м мгла ?/? +9.8 +1.2 55 +9 +9 1016.8 993.7 +18.5
21 16.09 Ю 3 н/о мгла н/о +8.3 +1.9 64 +6 +6 1016.3 993.1
00 17.09 Ю 2 4300 м мгла ясно +12.8 +3.7 54 +12 +16 1015.1 992.3
03 17.09 Ю 4 н/о мгла ясно +19.3 +0.8 29 +19 +27 1012.2 990.0
06 17.09 Ю 5 н/о мгла 9/9 1500 м
[]
+21.3 +3.5 31 +21 +22 комфорт 1008.5 986.5 +8.2
09 17.09 С 6 9000 м в посл. час дождь 9/9 1500 м
[]
+14.2 +7.7 65 +12 +12 1012.1 989.5
12 17.09 З 2 10 км {дождь} 5/5
[]
+8.8 +5.2 78 +7 +7 1016.1 993.0 0.7
18 17.09 СЗ 3 10 км ?/? +7.2 -0.7 57 +5 +5 1021.4 998.0 +21.9
21 17.09 З 1 12 км н/о +3.1 +0.2 81 +2 +2 1023.2 999.4
00 18.09 З 4 10 км ясно +9.6 +0.2 52 +7 +10 1024.2 1000.9
03 18.09 СЗ 7 9000 м ясно +15.4 -5.0 24 +14 +17 1023.1 1000.3
06 18.09 З 4 9000 м ясно +17.4 -7.1 18 +17 +22 1021.3 998.7 +3.0
09 18.09 З 3 9000 м ясно +16.9 -3.7 24 +17 +17 1020.0 997.4
12 18.09 ЮЗ 5 10 км ясно +13.5 -2.0 34 +12 +12 1019.2 996.4

 

Местоположение метеостанции Чанлин (Гирин, Китай): широта 44.25 долгота 123.96 высота над уровнем моря 190 м.

В архиве по умолчанию представлена погода в Чанлине за последнюю неделю. Архивные данные за месяц целиком и за предыдущие месяцы, начиная с января 2011 года, Вы можете получить, выбрав интересующий диапазон дат из раскрывающегося списка и нажав кнопку "Ввод!".


*Определитесь, кто Вы:
робот инопланетянин человек

Внимание! Время в таблицах - всемирное. Для получения местного времени необходимо прибавить поправку, которая равна 8 ч.

Смотрите также архив погоды в соседних городах и на ближайших метеорологических станциях:

Погода в Чанчуне (Гирин, Китай) (107 км)
Погода в Цянь Горлос (Гирин, Китай) (117 км)
Погода в Сыпине (Гирин, Китай) (123 км)
Погода в Тунляо (Внутренняя Монголия, Китай) (154 км)
Погода в Чжанъу (Ганьсу, Китай) (234 км)
Погода в Тайлае (Хэйлунцзян, Китай) (243 км)
Погода в Джаруд-Ци (Внутренняя Монголия, Китай) (246 км)
Погода в Цинъюане (Гуандун, Китай) (252 км)
Погода в Аньда (Хэйлунцзян, Китай) (259 км)
Погода в Хуадяне (Гирин, Китай) (265 км)

Пояснения к столбцам:

Ветер - указаны скорость ветра в м/с - средняя за 10 мин, порывы в срок и между сроками (в фигурных скобках) и направление, откуда дует ветер: С - северный, СВ - северо-восточный, В - восточный, ЮВ - юго-восточный, Ю - южный, ЮЗ - юго-западный, З - западный, СЗ - северо-западный.
Видимость - горизонтальная дальность видимости в метрах или километрах. При видимости от 1 до 10 км при отсутствии осадков обычно наблюдается дымка, при ухудшении видимости до 1 км и менее - туман. В сухую погоду видимость может ухудшаться дымом, пылью или мглою.
Явления - указаны атмосферные явления, наблюдавшиеся в срок или в последний час перед сроком; фигурными скобками обозначены явления, наблюдавшиеся между сроками (за 1-3 часа до срока); квадратными скобками обозначены град или гололедные отложения с указанием их диаметра в мм.
Облачность - указаны через наклонную черту общая и нижняя облачность в баллах и высота нижней границы облаков в метрах; квадратными скобками обозначены формы облаков: Ci - перистые, Cs - перисто-слоистые, Cc - перисто-кучевые, Ac - высококучевые, As - высокослоистые, Sc - слоисто-кучевые, Ns - слоисто-дождевые, Cu - кучевые, Cb - кучево-дождевые. Подробнее классификацию облаков см. в Атласе облаков (PDF).
T - Температура воздуха - температура, измеренная на высоте 2 м над землей.
Td - Температура точки росы - температура, при понижении до которой содержащийся в воздухе водяной пар достигнет насыщения.
f - Относительная влажность воздуха - влажноcть воздуха, измеренная на высоте 2 м над землей.
Te - Эффективная температура - температура, которую ощущает одетый по сезону человек в тени. Характеристика душности погоды. При расчете учитывается влияние влажности воздуха и скорости ветра на теплоощущения человека.
Tes - Эффективная температура на солнце - температура, которую ощущает человек, с поправкой на солнечный нагрев. Характеристика знойности погоды. Зависит от высоты солнца над горизонтом, облачности и скорости ветра. Ночью, в пасмурную погоду, а также при ветре 12 м/с и более поправка равна нулю.
P - Атмосферное давление - приведенное к уровню моря атмосферное давление.
Po - Атмосферное давление - измеренное на уровне метеостанции атмосферное давление.
Tmin - Минимальная температура - минимум температуры воздуха на высоте 2 м над землей.
Tmax - Максимальная температура - максимум температуры воздуха на высоте 2 м над землей.
R - Количество осадков - Количество выпавших осадков за период времени, мм. При наведении курсора мыши на число - период времени, за который выпало указанное количество осадков.
R24 - Количество осадков - Количество выпавших осадков за 24 часа, мм.
S - Снежный покров - Высота снежного покрова, см. При наведении курсора мыши на число - состояние снежного покрова и степень покрытия местности в баллах.